Location: Jetmore Motorplex
(37.9889°N, 99.8876°W)
Time: 19:47:08
(UTC+00:00)

USA 229 - Pass Details

Date: 17 February 2020
Orbit: 986 x 1226 km, 63.4° (Epoch: 26 March)

Event Time Altitude Azimuth Distance (km) Brightness Sun altitude
Rises 01:12:57 0° 191° (S) 3,680 6.8 -11.3°
Reaches altitude 10° 01:15:36 10° 184° (S) 2,744 6.0 -11.8°
Maximum altitude 01:21:38 44° 114° (ESE) 1,364 3.9 -13.0°
Drops below altitude 10° 01:27:55 10° 45° (NE) 2,861 5.5 -14.2°
Enters shadow 01:28:07 - 44° (NE) 2,932 5.6 -14.2°
